Time,TemperatureF,DewpointF,PressureIn,WindDirection,WindDirectionDegrees,WindSpeedMPH,WindSpeedGustMPH,Humidity,HourlyPrecipIn,Conditions,Clouds,dailyrainin,SoftwareType,DateUTC
2013-10-23 00:01:00,70.9,68.1,29.77,North,360,1.2,3.5,91,0.04,RA,,0.00,WeatherDisplay:10.37,2013-10-23 04:01:00,
2013-10-23 00:02:00,70.9,68.1,29.77,North,350,2.2,4.6,91,0.04,RA,,0.00,WeatherDisplay:10.37,2013-10-23 04:02:00,
2013-10-23 00:03:00,70.9,68.1,29.77,North,350,0.0,2.3,91,0.04,RA,,0.00,WeatherDisplay:10.37,2013-10-23 04:03:00,
2013-10-23 00:08:00,70.8,68.0,29.76,NNE,12,0.0,0.0,91,0.05,RA,,0.01,WeatherDisplay:10.37,2013-10-23 04:08:00,
2013-10-23 00:13:00,70.6,67.8,29.76,NNE,17,0.4,3.0,91,0.05,RA,,0.01,WeatherDisplay:10.37,2013-10-23 04:13:00,
2013-10-23 00:18:00,70.4,68.0,29.76,NNE,16,0.0,0.0,92,0.05,OVC,,0.01,WeatherDisplay:10.37,2013-10-23 04:18:00,
2013-10-23 00:23:00,70.4,68.0,29.76,NNE,16,0.0,0.0,92,0.05,OVC,,0.01,WeatherDisplay:10.37,2013-10-23 04:23:00,
2013-10-23 00:28:00,70.3,67.9,29.76,NNE,16,0.3,1.2,92,0.05,OVC,,0.02,WeatherDisplay:10.37,2013-10-23 04:28:00,
2013-10-23 00:33:00,70.3,67.9,29.76,North,350,0.1,3.5,92,0.06,RA,,0.02,WeatherDisplay:10.37,2013-10-23 04:33:00,
2013-10-23 00:38:00,70.1,67.7,29.76,NE,54,0.0,0.0,92,0.06,RA,,0.02,WeatherDisplay:10.37,2013-10-23 04:38:00,
2013-10-23 00:43:00,69.9,67.5,29.76,NE,53,1.6,2.3,92,0.05,OVC,,0.02,WeatherDisplay:10.37,2013-10-23 04:43:00,
2013-10-23 00:49:00,69.8,67.4,29.76,NE,49,0.0,2.3,92,0.04,OVC,,0.02,WeatherDisplay:10.37,2013-10-23 04:49:00,
2013-10-23 00:54:00,69.8,67.4,29.77,NNE,22,0.7,3.5,92,0.02,OVC,,0.02,WeatherDisplay:10.37,2013-10-23 04:54:00,
2013-10-23 00:59:00,69.6,67.2,29.77,North,360,1.2,3.5,92,0.02,OVC,,0.02,WeatherDisplay:10.37,2013-10-23 04:59:00,
2013-10-23 01:04:00,69.4,67.0,29.77,North,10,1.2,4.6,92,0.02,-RA,,0.02,WeatherDisplay:10.37,2013-10-23 05:04:00,
2013-10-23 01:09:00,69.1,66.7,29.77,NNW,345,0.7,3.5,92,0.01,-RA,,0.02,WeatherDisplay:10.37,2013-10-23 05:09:00,
2013-10-23 01:14:00,68.9,66.5,29.77,NE,47,0.3,3.5,92,0.01,-RA,,0.02,WeatherDisplay:10.37,2013-10-23 05:14:00,
2013-10-23 01:19:00,68.8,66.4,29.77,WNW,299,0.0,0.0,92,0.02,-RA,,0.03,WeatherDisplay:10.37,2013-10-23 05:19:00,
2013-10-23 01:24:00,68.4,66.0,29.77,NW,306,0.4,2.3,92,0.02,-RA,,0.03,WeatherDisplay:10.37,2013-10-23 05:24:00,
2013-10-23 01:29:00,68.1,65.7,29.77,NW,308,0.8,3.5,92,0.01,-RA,,0.03,WeatherDisplay:10.37,2013-10-23 05:29:00,
2013-10-23 01:34:00,67.9,65.5,29.77,NNW,329,0.1,4.6,92,0.01,-RA,,0.03,WeatherDisplay:10.37,2013-10-23 05:34:00,
2013-10-23 01:39:00,67.8,65.4,29.77,NNW,329,0.0,0.0,92,0.01,-RA,,0.03,WeatherDisplay:10.37,2013-10-23 05:39:00,
2013-10-23 01:44:00,67.6,65.2,29.77,NNW,339,1.2,3.5,92,0.03,-RA,,0.05,WeatherDisplay:10.37,2013-10-23 05:44:00,
2013-10-23 01:49:00,67.6,65.2,29.78,NNW,339,0.5,2.3,92,0.05,-RA,,0.07,WeatherDisplay:10.37,2013-10-23 05:49:00,
2013-10-23 01:54:00,67.4,65.0,29.77,NNW,339,0.6,3.5,92,0.06,-RA,,0.08,WeatherDisplay:10.37,2013-10-23 05:54:00,
2013-10-23 01:59:00,67.3,64.9,29.78,NNW,339,0.4,1.2,92,0.06,-RA,,0.08,WeatherDisplay:10.37,2013-10-23 05:59:00,
2013-10-23 02:04:00,67.1,64.7,29.78,NNW,341,1.3,4.6,92,0.07,-RA,,0.09,WeatherDisplay:10.37,2013-10-23 06:04:00,
2013-10-23 02:09:00,66.9,64.5,29.78,NNE,17,1.5,3.5,92,0.07,-RA,,0.09,WeatherDisplay:10.37,2013-10-23 06:09:00,
2013-10-23 02:14:00,66.6,64.2,29.78,NNE,17,0.7,2.3,92,0.07,-RA,,0.09,WeatherDisplay:10.37,2013-10-23 06:14:00,
2013-10-23 02:19:00,66.4,64.0,29.78,NNE,19,0.0,0.0,92,0.06,-RA,,0.09,WeatherDisplay:10.37,2013-10-23 06:19:00,
2013-10-23 02:24:00,66.4,64.0,29.77,NNE,17,0.4,3.5,92,0.06,-RA,,0.09,WeatherDisplay:10.37,2013-10-23 06:24:00,
2013-10-23 02:29:00,66.3,63.9,29.77,NNE,18,0.4,2.3,92,0.06,-RA,,0.09,WeatherDisplay:10.37,2013-10-23 06:29:00,
2013-10-23 02:34:00,66.1,63.7,29.77,NNE,17,0.0,0.0,92,0.06,-RA,,0.09,WeatherDisplay:10.37,2013-10-23 06:34:00,
2013-10-23 02:39:00,66.1,63.7,29.77,NNE,17,0.0,0.0,92,0.06,-RA,,0.09,WeatherDisplay:10.37,2013-10-23 06:39:00,
2013-10-23 02:44:00,66.1,63.7,29.77,NNE,17,0.0,0.0,92,0.04,-RA,,0.09,WeatherDisplay:10.37,2013-10-23 06:44:00,
2013-10-23 02:49:00,66.1,63.7,29.77,NNE,16,0.0,0.0,92,0.02,-RA,,0.09,WeatherDisplay:10.37,2013-10-23 06:49:00,
2013-10-23 02:54:00,66.1,63.7,29.77,NNE,15,0.0,0.0,92,0.01,-RA,,0.09,WeatherDisplay:10.37,2013-10-23 06:54:00,
2013-10-23 02:59:00,66.1,63.7,29.77,NNE,16,0.0,0.0,92,0.01,-RA,,0.09,WeatherDisplay:10.37,2013-10-23 06:59:00,
2013-10-23 03:04:00,66.0,63.6,29.77,NNE,16,0.0,0.0,92,0.00,OVC,,0.09,WeatherDisplay:10.37,2013-10-23 07:04:00,
2013-10-23 03:09:00,66.0,63.6,29.77,NNE,15,0.0,0.0,92,0.00,OVC,,0.09,WeatherDisplay:10.37,2013-10-23 07:09:00,
2013-10-23 03:14:00,66.0,63.6,29.77,NNE,15,0.0,0.0,92,0.00,OVC,,0.09,WeatherDisplay:10.37,2013-10-23 07:14:00,
2013-10-23 03:19:00,65.8,63.4,29.76,NNE,15,0.0,1.2,92,0.00,OVC,,0.09,WeatherDisplay:10.37,2013-10-23 07:19:00,
2013-10-23 03:24:00,65.8,63.4,29.76,NNE,17,0.2,3.0,92,0.00,OVC,,0.09,WeatherDisplay:10.37,2013-10-23 07:24:00,
2013-10-23 03:29:00,65.6,63.2,29.76,NNE,17,0.0,0.0,92,0.00,OVC,,0.09,WeatherDisplay:10.37,2013-10-23 07:29:00,
2013-10-23 03:34:00,65.5,63.1,29.76,NNE,17,0.0,0.0,92,0.00,OVC,,0.09,WeatherDisplay:10.37,2013-10-23 07:34:00,
2013-10-23 03:39:00,65.5,63.1,29.76,NNE,17,0.0,0.0,92,0.00,OVC,,0.09,WeatherDisplay:10.37,2013-10-23 07:39:00,
2013-10-23 03:44:00,65.5,63.1,29.76,NNE,17,0.0,0.0,92,0.00,OVC,,0.09,WeatherDisplay:10.37,2013-10-23 07:44:00,
2013-10-23 03:49:00,65.3,62.9,29.76,NNE,17,0.0,0.0,92,0.00,OVC,,0.09,WeatherDisplay:10.37,2013-10-23 07:49:00,
2013-10-23 03:54:00,65.3,62.9,29.76,NNE,17,0.0,0.0,92,0.00,OVC,,0.09,WeatherDisplay:10.37,2013-10-23 07:54:00,
2013-10-23 03:59:00,65.2,62.8,29.76,NNE,17,0.0,0.0,92,0.00,OVC,,0.09,WeatherDisplay:10.37,2013-10-23 07:59:00,
2013-10-23 04:04:00,65.2,62.8,29.76,NNE,17,0.0,0.0,92,0.00,BKN,,0.09,WeatherDisplay:10.37,2013-10-23 08:04:00,
2013-10-23 04:09:00,65.0,62.6,29.76,NNE,17,0.0,0.0,92,0.00,BKN,,0.09,WeatherDisplay:10.37,2013-10-23 08:09:00,
2013-10-23 04:14:00,65.0,62.6,29.76,NNE,17,0.0,0.0,92,0.00,BKN,,0.09,WeatherDisplay:10.37,2013-10-23 08:14:00,
2013-10-23 04:19:00,65.0,62.6,29.76,NNE,17,0.0,0.0,92,0.00,BKN,,0.09,WeatherDisplay:10.37,2013-10-23 08:19:00,
2013-10-23 04:24:00,64.8,62.4,29.76,NNE,17,0.0,0.0,92,0.00,BKN,,0.09,WeatherDisplay:10.37,2013-10-23 08:24:00,
2013-10-23 04:29:00,64.8,62.4,29.76,NNE,17,0.0,0.0,92,0.00,BKN,,0.09,WeatherDisplay:10.37,2013-10-23 08:29:00,
2013-10-23 04:34:00,64.8,62.4,29.76,NNE,17,0.0,0.0,92,0.00,BKN,,0.09,WeatherDisplay:10.37,2013-10-23 08:34:00,
2013-10-23 04:39:00,64.7,62.3,29.76,NNE,17,0.0,0.0,92,0.00,BKN,,0.09,WeatherDisplay:10.37,2013-10-23 08:39:00,
2013-10-23 04:44:00,64.7,62.3,29.76,NNE,17,0.0,0.0,92,0.00,BKN,,0.09,WeatherDisplay:10.37,2013-10-23 08:44:00,
2013-10-23 04:49:00,64.5,62.1,29.76,NNE,17,0.0,0.0,92,0.00,BKN,,0.09,WeatherDisplay:10.37,2013-10-23 08:49:00,
2013-10-23 04:54:00,64.5,62.1,29.76,NNE,17,0.0,0.0,92,0.00,BKN,,0.09,WeatherDisplay:10.37,2013-10-23 08:54:00,
2013-10-23 04:59:00,64.5,62.1,29.76,NNE,17,0.0,0.0,92,0.00,BKN,,0.09,WeatherDisplay:10.37,2013-10-23 08:59:00,
2013-10-23 05:04:00,64.3,61.9,29.76,NNE,17,0.0,0.0,92,0.01,RA,,0.10,WeatherDisplay:10.37,2013-10-23 09:04:00,
2013-10-23 05:09:00,64.3,61.9,29.76,NNE,17,0.0,0.0,92,0.01,RA,,0.10,WeatherDisplay:10.37,2013-10-23 09:09:00,
2013-10-23 05:14:00,64.3,61.9,29.77,NNE,17,0.0,0.0,92,0.01,SCT,,0.10,WeatherDisplay:10.37,2013-10-23 09:14:00,
2013-10-23 05:19:00,64.2,61.8,29.76,NNE,17,0.0,0.0,92,0.01,SCT,,0.10,WeatherDisplay:10.37,2013-10-23 09:19:00,
2013-10-23 05:24:00,64.2,61.8,29.77,NNE,17,0.0,0.0,92,0.01,SCT,,0.10,WeatherDisplay:10.37,2013-10-23 09:24:00,
2013-10-23 05:29:00,64.2,61.8,29.77,NNE,17,0.0,0.0,92,0.01,SCT,,0.10,WeatherDisplay:10.37,2013-10-23 09:29:00,
2013-10-23 05:34:00,64.0,61.6,29.77,NNE,17,0.0,0.0,92,0.01,SCT,,0.10,WeatherDisplay:10.37,2013-10-23 09:34:00,
2013-10-23 05:39:00,64.0,61.6,29.77,NNE,17,0.0,0.0,92,0.01,SCT,,0.10,WeatherDisplay:10.37,2013-10-23 09:39:00,
2013-10-23 05:44:00,64.0,61.6,29.77,NNE,17,0.0,0.0,92,0.01,SCT,,0.10,WeatherDisplay:10.37,2013-10-23 09:44:00,
2013-10-23 05:49:00,63.9,61.5,29.77,NNE,17,0.0,0.0,92,0.01,SCT,,0.10,WeatherDisplay:10.37,2013-10-23 09:49:00,
2013-10-23 05:54:00,63.9,61.5,29.77,NNE,17,0.0,0.0,92,0.01,SCT,,0.10,WeatherDisplay:10.37,2013-10-23 09:54:00,
2013-10-23 05:59:00,63.9,61.5,29.77,NNE,17,0.0,0.0,92,0.01,SCT,,0.10,WeatherDisplay:10.37,2013-10-23 09:59:00,
2013-10-23 06:04:00,63.7,61.3,29.78,NNE,17,0.0,0.0,92,0.01,SCT,,0.10,WeatherDisplay:10.37,2013-10-23 10:04:00,
2013-10-23 06:09:00,63.7,61.3,29.78,NNE,17,0.0,0.0,92,0.00,SCT,,0.10,WeatherDisplay:10.37,2013-10-23 10:09:00,
2013-10-23 06:14:00,63.7,61.3,29.78,NNE,17,0.0,0.0,92,0.00,SCT,,0.10,WeatherDisplay:10.37,2013-10-23 10:14:00,
2013-10-23 06:19:00,63.7,61.3,29.79,NNE,17,0.0,0.0,92,0.00,SCT,,0.10,WeatherDisplay:10.37,2013-10-23 10:19:00,
2013-10-23 06:24:00,63.5,61.4,29.79,NNE,17,0.0,0.0,93,0.00,SCT,,0.10,WeatherDisplay:10.37,2013-10-23 10:24:00,
2013-10-23 06:29:00,63.5,61.4,29.79,NNE,17,0.0,0.0,93,0.00,SCT,,0.10,WeatherDisplay:10.37,2013-10-23 10:29:00,
2013-10-23 06:34:00,63.5,61.4,29.79,NNE,17,0.0,0.0,93,0.00,SCT,,0.10,WeatherDisplay:10.37,2013-10-23 10:34:00,
2013-10-23 06:39:00,63.5,61.4,29.79,NNE,17,0.0,0.0,93,0.00,SCT,,0.10,WeatherDisplay:10.37,2013-10-23 10:39:00,
2013-10-23 06:44:00,63.4,61.3,29.79,NNE,17,0.0,0.0,93,0.00,SCT,,0.10,WeatherDisplay:10.37,2013-10-23 10:44:00,
2013-10-23 06:49:00,63.4,61.3,29.79,NNE,17,0.0,0.0,93,0.00,SCT,,0.10,WeatherDisplay:10.37,2013-10-23 10:49:00,
2013-10-23 06:54:00,63.4,61.3,29.80,NNE,17,0.0,0.0,93,0.00,SCT,,0.10,WeatherDisplay:10.37,2013-10-23 10:54:00,
2013-10-23 06:59:00,63.2,61.1,29.80,NNE,17,0.0,0.0,93,0.00,SCT,,0.10,WeatherDisplay:10.37,2013-10-23 10:59:00,
2013-10-23 07:04:00,63.2,61.1,29.80,NNE,17,0.0,0.0,93,0.00,SCT,,0.10,WeatherDisplay:10.37,2013-10-23 11:04:00,
2013-10-23 07:09:00,63.2,61.1,29.80,NNE,17,0.0,0.0,93,0.00,SCT,,0.10,WeatherDisplay:10.37,2013-10-23 11:09:00,
2013-10-23 07:14:00,63.2,61.1,29.80,NNE,17,0.0,0.0,93,0.00,SCT,,0.10,WeatherDisplay:10.37,2013-10-23 11:14:00,
2013-10-23 07:19:00,63.1,61.0,29.80,NNE,17,0.0,0.0,93,0.00,SCT,,0.10,WeatherDisplay:10.37,2013-10-23 11:19:00,
2013-10-23 07:24:00,63.1,61.0,29.80,NNE,17,0.0,0.0,93,0.00,SCT,,0.10,WeatherDisplay:10.37,2013-10-23 11:24:00,
2013-10-23 07:29:00,63.1,61.0,29.81,NNE,17,0.0,0.0,93,0.00,SCT,,0.10,WeatherDisplay:10.37,2013-10-23 11:29:00,
2013-10-23 07:34:00,63.1,61.0,29.81,NNE,17,0.0,0.0,93,0.00,SCT,,0.10,WeatherDisplay:10.37,2013-10-23 11:34:00,
2013-10-23 07:39:00,63.1,61.0,29.81,NNE,17,0.0,0.0,93,0.00,SCT,,0.10,WeatherDisplay:10.37,2013-10-23 11:39:00,
2013-10-23 07:44:00,63.1,61.0,29.81,NNE,17,0.1,1.0,93,0.00,SCT,,0.10,WeatherDisplay:10.37,2013-10-23 11:44:00,
2013-10-23 07:49:00,63.1,61.0,29.81,NNE,15,1.0,2.3,93,0.00,SCT,,0.10,WeatherDisplay:10.37,2013-10-23 11:49:00,
2013-10-23 07:54:00,63.2,61.1,29.81,North,10,0.0,2.3,93,0.00,SCT,,0.10,WeatherDisplay:10.37,2013-10-23 11:54:00,
2013-10-23 07:59:00,63.2,61.1,29.81,North,10,0.0,0.0,93,0.00,SCT,,0.10,WeatherDisplay:10.37,2013-10-23 11:59:00,
2013-10-23 08:04:00,63.4,61.3,29.81,North,10,0.0,0.0,93,0.00,SCT,,0.10,WeatherDisplay:10.37,2013-10-23 12:04:00,
2013-10-23 08:09:00,63.4,61.3,29.82,North,10,0.0,0.0,93,0.00,SCT,,0.10,WeatherDisplay:10.37,2013-10-23 12:09:00,
2013-10-23 08:14:00,63.5,61.4,29.82,North,10,0.0,0.0,93,0.00,SCT,,0.10,WeatherDisplay:10.37,2013-10-23 12:14:00,
2013-10-23 08:19:00,63.7,61.6,29.82,North,10,0.0,2.3,93,0.00,SCT,,0.10,WeatherDisplay:10.37,2013-10-23 12:19:00,
2013-10-23 08:24:00,63.7,61.6,29.83,North,10,0.0,0.0,93,0.00,SCT,,0.10,WeatherDisplay:10.37,2013-10-23 12:24:00,
2013-10-23 08:29:00,63.9,61.8,29.83,NNE,12,0.0,0.0,93,0.00,SCT,,0.10,WeatherDisplay:10.37,2013-10-23 12:29:00,
2013-10-23 08:34:00,63.9,61.8,29.83,NNE,22,0.7,4.6,93,0.00,SCT,,0.10,WeatherDisplay:10.37,2013-10-23 12:34:00,
2013-10-23 08:39:00,64.0,61.9,29.83,North,11,0.0,3.5,93,0.00,SCT,,0.10,WeatherDisplay:10.37,2013-10-23 12:39:00,
2013-10-23 08:44:00,64.0,61.9,29.83,ESE,116,0.1,2.3,93,0.00,SCT,,0.10,WeatherDisplay:10.37,2013-10-23 12:44:00,
2013-10-23 08:49:00,64.0,61.9,29.83,South,171,0.4,2.3,93,0.00,SCT,,0.10,WeatherDisplay:10.37,2013-10-23 12:49:00,
2013-10-23 08:54:00,64.7,62.6,29.84,North,4,0.0,0.0,93,0.00,SCT,,0.10,WeatherDisplay:10.37,2013-10-23 12:54:00,
2013-10-23 08:59:00,64.8,62.7,29.84,North,360,0.0,2.3,93,0.00,SCT,,0.10,WeatherDisplay:10.37,2013-10-23 12:59:00,
2013-10-23 09:04:00,65.0,62.9,29.84,NNE,25,1.1,4.6,93,0.00,BKN,,0.10,WeatherDisplay:10.37,2013-10-23 13:04:00,
2013-10-23 09:09:00,65.0,62.9,29.84,North,360,0.3,2.3,93,0.00,BKN,,0.10,WeatherDisplay:10.37,2013-10-23 13:09:00,
2013-10-23 09:14:00,65.2,63.1,29.84,NNW,333,0.0,0.0,93,0.00,BKN,,0.10,WeatherDisplay:10.37,2013-10-23 13:14:00,
2013-10-23 09:19:00,65.2,63.1,29.84,WNW,288,0.9,2.0,93,0.00,BKN,,0.10,WeatherDisplay:10.37,2013-10-23 13:19:00,
2013-10-23 09:24:00,65.2,63.1,29.84,WNW,287,0.0,0.0,93,0.00,BKN,,0.10,WeatherDisplay:10.37,2013-10-23 13:24:00,
2013-10-23 09:29:00,65.3,63.2,29.84,WNW,288,0.0,0.0,93,0.00,BKN,,0.10,WeatherDisplay:10.37,2013-10-23 13:29:00,
2013-10-23 09:34:00,65.6,63.5,29.85,WNW,288,0.0,0.0,93,0.00,BKN,,0.10,WeatherDisplay:10.37,2013-10-23 13:34:00,
2013-10-23 09:39:00,65.8,63.7,29.84,WNW,288,0.0,0.0,93,0.00,BKN,,0.10,WeatherDisplay:10.37,2013-10-23 13:39:00,
2013-10-23 09:44:00,66.0,63.9,29.85,NNE,19,0.0,0.0,93,0.00,BKN,,0.10,WeatherDisplay:10.37,2013-10-23 13:44:00,
2013-10-23 09:49:00,65.8,63.7,29.85,NNE,12,1.3,2.3,93,0.00,BKN,,0.10,WeatherDisplay:10.37,2013-10-23 13:49:00,
2013-10-23 09:54:00,65.8,63.7,29.85,North,10,1.2,2.3,93,0.00,BKN,,0.10,WeatherDisplay:10.37,2013-10-23 13:54:00,
2013-10-23 09:59:00,66.1,64.0,29.85,North,8,0.0,0.0,93,0.00,BKN,,0.10,WeatherDisplay:10.37,2013-10-23 13:59:00,
2013-10-23 10:04:00,65.8,63.7,29.85,NW,310,0.2,2.3,93,0.00,SCT,,0.10,WeatherDisplay:10.37,2013-10-23 14:04:00,
2013-10-23 10:09:00,65.8,63.4,29.85,NNE,28,0.0,6.9,92,0.00,SCT,,0.10,WeatherDisplay:10.37,2013-10-23 14:09:00,
2013-10-23 10:14:00,66.0,63.6,29.85,NNE,14,0.6,4.6,92,0.00,SCT,,0.10,WeatherDisplay:10.37,2013-10-23 14:14:00,
2013-10-23 10:19:00,66.4,64.0,29.85,North,8,0.8,3.5,92,0.00,SCT,,0.10,WeatherDisplay:10.37,2013-10-23 14:19:00,
2013-10-23 10:24:00,66.4,64.0,29.85,NW,324,0.2,5.8,92,0.00,SCT,,0.10,WeatherDisplay:10.37,2013-10-23 14:24:00,
2013-10-23 10:29:00,66.6,64.2,29.85,NW,307,2.9,2.9,92,0.00,SCT,,0.10,WeatherDisplay:10.37,2013-10-23 14:29:00,
2013-10-23 10:34:00,66.6,63.9,29.86,NNE,29,1.5,11.5,91,0.00,SCT,,0.10,WeatherDisplay:10.37,2013-10-23 14:34:00,
2013-10-23 10:39:00,66.4,63.4,29.85,West,280,0.2,5.8,90,0.00,SCT,,0.10,WeatherDisplay:10.37,2013-10-23 14:39:00,
2013-10-23 10:44:00,67.1,63.7,29.86,SE,144,0.0,2.3,89,0.00,SCT,,0.10,WeatherDisplay:10.37,2013-10-23 14:44:00,
2013-10-23 10:49:00,67.6,63.9,29.86,WNW,302,0.0,3.5,88,0.00,SCT,,0.10,WeatherDisplay:10.37,2013-10-23 14:49:00,
2013-10-23 10:54:00,68.1,63.4,29.86,WNW,297,0.2,4.0,85,0.00,SCT,,0.10,WeatherDisplay:10.37,2013-10-23 14:54:00,
2013-10-23 10:59:00,68.9,63.2,29.86,WSW,252,1.4,5.0,82,0.00,SCT,,0.10,WeatherDisplay:10.37,2013-10-23 14:59:00,
2013-10-23 11:04:00,69.6,62.1,29.86,North,10,3.4,6.9,77,0.00,SCT,,0.10,WeatherDisplay:10.37,2013-10-23 15:04:00,
2013-10-23 11:10:00,70.3,61.6,29.86,NW,322,1.4,3.5,74,0.00,SCT,,0.10,WeatherDisplay:10.37,2013-10-23 15:10:00,
2013-10-23 11:15:00,69.9,60.8,29.86,NE,49,0.0,4.6,73,0.00,SCT,,0.10,WeatherDisplay:10.37,2013-10-23 15:15:00,
2013-10-23 11:20:00,70.3,60.8,29.86,North,11,1.0,10.4,72,0.00,SCT,,0.10,WeatherDisplay:10.37,2013-10-23 15:20:00,
2013-10-23 11:25:00,70.4,60.9,29.86,South,181,0.2,2.0,72,0.00,SCT,,0.10,WeatherDisplay:10.37,2013-10-23 15:25:00,
2013-10-23 11:30:00,70.6,60.7,29.86,SW,218,0.2,3.5,71,0.00,SCT,,0.10,WeatherDisplay:10.37,2013-10-23 15:30:00,
2013-10-23 11:35:00,70.4,60.5,29.86,NNE,19,1.7,5.8,71,0.00,SCT,,0.10,WeatherDisplay:10.37,2013-10-23 15:35:00,
2013-10-23 11:40:00,70.1,59.5,29.86,WNW,283,2.6,5.8,69,0.00,SCT,,0.10,WeatherDisplay:10.37,2013-10-23 15:40:00,
2013-10-23 11:45:00,70.3,59.2,29.86,NNW,344,1.2,3.5,68,0.00,SCT,,0.10,WeatherDisplay:10.37,2013-10-23 15:45:00,
2013-10-23 11:50:00,70.6,59.5,29.86,North,360,1.9,3.5,68,0.00,SCT,,0.10,WeatherDisplay:10.37,2013-10-23 15:50:00,
2013-10-23 11:55:00,71.3,58.9,29.86,North,6,1.2,3.5,65,0.00,SCT,,0.10,WeatherDisplay:10.37,2013-10-23 15:55:00,
2013-10-23 12:00:00,71.3,58.9,29.86,NE,53,0.0,0.0,65,0.00,SCT,,0.10,WeatherDisplay:10.37,2013-10-23 16:00:00,
2013-10-23 12:05:00,71.3,58.1,29.86,WNW,299,1.5,5.0,63,0.00,SCT,,0.10,WeatherDisplay:10.37,2013-10-23 16:05:00,
2013-10-23 12:10:00,71.3,55.8,29.86,NE,52,0.8,11.5,58,0.00,SCT,,0.10,WeatherDisplay:10.37,2013-10-23 16:10:00,
2013-10-23 12:15:00,71.5,55.0,29.85,NW,317,2.1,9.2,56,0.00,SCT,,0.10,WeatherDisplay:10.37,2013-10-23 16:15:00,
2013-10-23 12:20:00,71.8,54.8,29.85,NNW,337,1.6,5.8,55,0.00,SCT,,0.10,WeatherDisplay:10.37,2013-10-23 16:20:00,
2013-10-23 12:25:00,72.5,55.9,29.85,NW,304,1.4,4.6,56,0.00,SCT,,0.10,WeatherDisplay:10.37,2013-10-23 16:25:00,
2013-10-23 12:30:00,72.1,52.4,29.85,NNE,33,1.9,4.6,50,0.00,SCT,,0.10,WeatherDisplay:10.37,2013-10-23 16:30:00,
2013-10-23 12:35:00,72.1,50.8,29.84,NNW,327,1.3,3.5,47,0.00,SCT,,0.10,WeatherDisplay:10.37,2013-10-23 16:35:00,
2013-10-23 12:40:00,72.3,52.6,29.85,North,8,0.1,1.2,50,0.00,SCT,,0.10,WeatherDisplay:10.37,2013-10-23 16:40:00,
2013-10-23 12:45:00,72.8,53.6,29.84,NNE,18,1.4,8.1,51,0.00,SCT,,0.10,WeatherDisplay:10.37,2013-10-23 16:45:00,
2013-10-23 12:50:00,73.7,54.4,29.84,NE,38,2.6,6.0,51,0.00,SCT,,0.10,WeatherDisplay:10.37,2013-10-23 16:50:00,
2013-10-23 12:55:00,72.7,51.3,29.84,WNW,293,3.5,6.9,47,0.00,SCT,,0.10,WeatherDisplay:10.37,2013-10-23 16:55:00,
2013-10-23 13:00:00,72.5,51.1,29.84,North,11,1.4,0.0,47,0.00,SCT,,0.10,WeatherDisplay:10.37,2013-10-23 17:00:00,
2013-10-23 13:05:00,72.3,52.1,29.84,NNE,19,0.0,0.0,49,0.00,SCT,,0.10,WeatherDisplay:10.37,2013-10-23 17:05:00,
2013-10-23 13:10:00,72.3,53.2,29.84,North,5,0.0,0.0,51,0.00,SCT,,0.10,WeatherDisplay:10.37,2013-10-23 17:10:00,
2013-10-23 13:15:00,72.5,51.7,29.83,North,5,1.8,3.5,48,0.00,SCT,,0.10,WeatherDisplay:10.37,2013-10-23 17:15:00,
2013-10-23 13:20:00,72.1,52.4,29.83,NE,35,0.6,2.3,50,0.00,SCT,,0.10,WeatherDisplay:10.37,2013-10-23 17:20:00,
2013-10-23 13:25:00,72.7,52.4,29.83,North,355,0.0,0.0,49,0.00,SCT,,0.10,WeatherDisplay:10.37,2013-10-23 17:25:00,
2013-10-23 13:30:00,72.3,52.6,29.83,SSE,165,0.8,3.5,50,0.00,SCT,,0.10,WeatherDisplay:10.37,2013-10-23 17:30:00,
2013-10-23 13:35:00,73.0,53.8,29.83,SSE,154,0.0,0.0,51,0.00,SCT,,0.10,WeatherDisplay:10.37,2013-10-23 17:35:00,
2013-10-23 13:40:00,73.3,53.0,29.82,SW,219,0.0,1.2,49,0.00,SCT,,0.10,WeatherDisplay:10.37,2013-10-23 17:40:00,
2013-10-23 13:45:00,73.9,54.6,29.82,SW,216,0.0,1.2,51,0.00,SCT,,0.10,WeatherDisplay:10.37,2013-10-23 17:45:00,
2013-10-23 13:50:00,74.0,52.5,29.82,West,264,0.6,3.0,47,0.00,SCT,,0.10,WeatherDisplay:10.37,2013-10-23 17:50:00,
2013-10-23 13:55:00,74.6,51.9,29.82,NW,325,2.9,6.9,45,0.00,SCT,,0.10,WeatherDisplay:10.37,2013-10-23 17:55:00,
2013-10-23 14:00:00,74.7,53.1,29.81,North,360,2.4,0.0,47,0.00,SCT,,0.10,WeatherDisplay:10.37,2013-10-23 18:00:00,
2013-10-23 14:05:00,74.4,51.1,29.81,North,4,2.3,6.9,44,0.00,FEW,,0.10,WeatherDisplay:10.37,2013-10-23 18:05:00,
2013-10-23 14:10:00,74.4,52.9,29.81,ENE,72,3.4,6.9,47,0.00,FEW,,0.10,WeatherDisplay:10.37,2013-10-23 18:10:00,
2013-10-23 14:15:00,74.0,51.3,29.81,SW,234,0.0,5.8,45,0.00,FEW,,0.10,WeatherDisplay:10.37,2013-10-23 18:15:00,
2013-10-23 14:20:00,74.4,51.1,29.81,SW,226,4.3,6.9,44,0.00,FEW,,0.10,WeatherDisplay:10.37,2013-10-23 18:20:00,
2013-10-23 14:25:00,74.9,51.5,29.81,ENE,69,1.8,5.8,44,0.00,FEW,,0.10,WeatherDisplay:10.37,2013-10-23 18:25:00,
2013-10-23 14:30:00,75.3,51.9,29.81,SW,226,0.1,5.8,44,0.00,FEW,,0.10,WeatherDisplay:10.37,2013-10-23 18:30:00,
2013-10-23 14:35:00,75.3,50.6,29.81,NNW,335,3.6,10.4,42,0.00,FEW,,0.10,WeatherDisplay:10.37,2013-10-23 18:35:00,
2013-10-23 14:40:00,75.1,52.9,29.81,West,263,0.4,3.5,46,0.00,FEW,,0.10,WeatherDisplay:10.37,2013-10-23 18:40:00,
2013-10-23 14:45:00,75.4,53.2,29.81,North,350,1.0,12.0,46,0.00,FEW,,0.10,WeatherDisplay:10.37,2013-10-23 18:45:00,
2013-10-23 14:50:00,75.1,52.3,29.81,WNW,284,1.0,6.9,45,0.00,FEW,,0.10,WeatherDisplay:10.37,2013-10-23 18:50:00,
2013-10-23 14:55:00,74.9,51.5,29.81,WNW,299,1.2,5.8,44,0.00,FEW,,0.10,WeatherDisplay:10.37,2013-10-23 18:55:00,
2013-10-23 15:00:00,74.9,52.1,29.81,ENE,71,0.7,5.8,45,0.00,FEW,,0.10,WeatherDisplay:10.37,2013-10-23 19:00:00,
2013-10-23 15:05:00,75.1,52.3,29.81,SW,216,0.9,3.5,45,0.00,FEW,,0.10,WeatherDisplay:10.37,2013-10-23 19:05:00,
2013-10-23 15:10:00,75.1,51.7,29.81,NE,38,0.1,1.2,44,0.00,FEW,,0.10,WeatherDisplay:10.37,2013-10-23 19:10:00,
2013-10-23 15:15:00,75.1,52.3,29.81,NE,37,1.2,4.6,45,0.00,FEW,,0.10,WeatherDisplay:10.37,2013-10-23 19:15:00,
2013-10-23 15:20:00,75.1,51.7,29.81,North,350,1.8,4.6,44,0.00,FEW,,0.10,WeatherDisplay:10.37,2013-10-23 19:20:00,
2013-10-23 15:25:00,74.4,51.7,29.80,WNW,282,0.0,1.2,45,0.00,FEW,,0.10,WeatherDisplay:10.37,2013-10-23 19:25:00,
2013-10-23 15:30:00,74.9,53.3,29.80,ESE,103,0.0,0.0,47,0.00,FEW,,0.10,WeatherDisplay:10.37,2013-10-23 19:30:00,
2013-10-23 15:35:00,75.6,52.8,29.80,SSE,158,0.6,3.5,45,0.00,FEW,,0.10,WeatherDisplay:10.37,2013-10-23 19:35:00,
2013-10-23 15:40:00,75.6,52.1,29.80,SSW,212,0.0,0.0,44,0.00,FEW,,0.10,WeatherDisplay:10.37,2013-10-23 19:40:00,
2013-10-23 15:45:00,75.6,50.9,29.80,NW,312,0.1,1.2,42,0.00,FEW,,0.10,WeatherDisplay:10.37,2013-10-23 19:45:00,
2013-10-23 15:50:00,75.1,51.1,29.80,NE,39,0.6,3.5,43,0.00,FEW,,0.10,WeatherDisplay:10.37,2013-10-23 19:50:00,
2013-10-23 15:55:00,75.1,50.4,29.80,NNE,23,1.4,5.8,42,0.00,FEW,,0.10,WeatherDisplay:10.37,2013-10-23 19:55:00,
2013-10-23 16:00:00,75.3,51.3,29.80,NE,44,0.6,3.5,43,0.00,FEW,,0.10,WeatherDisplay:10.37,2013-10-23 20:00:00,
2013-10-23 16:05:00,75.3,50.6,29.80,ESE,119,1.1,3.5,42,0.00,SCT,,0.10,WeatherDisplay:10.37,2013-10-23 20:05:00,
2013-10-23 16:10:00,75.4,52.0,29.80,SW,229,0.1,1.2,44,0.00,SCT,,0.10,WeatherDisplay:10.37,2013-10-23 20:10:00,
2013-10-23 16:15:00,75.8,52.3,29.80,NE,38,0.6,5.8,44,0.00,SCT,,0.10,WeatherDisplay:10.37,2013-10-23 20:15:00,
2013-10-23 16:20:00,75.8,50.4,29.80,North,355,1.7,10.4,41,0.00,SCT,,0.10,WeatherDisplay:10.37,2013-10-23 20:20:00,
2013-10-23 16:25:00,75.6,50.2,29.80,NW,310,0.1,2.3,41,0.00,SCT,,0.10,WeatherDisplay:10.37,2013-10-23 20:25:00,
2013-10-23 16:30:00,75.6,51.5,29.80,NNE,27,0.7,4.6,43,0.00,SCT,,0.10,WeatherDisplay:10.37,2013-10-23 20:30:00,
2013-10-23 16:35:00,75.4,49.4,29.80,SW,216,0.0,1.2,40,0.00,SCT,,0.10,WeatherDisplay:10.37,2013-10-23 20:35:00,
2013-10-23 16:40:00,75.3,48.6,29.81,ENE,65,0.5,4.0,39,0.00,SCT,,0.10,WeatherDisplay:10.37,2013-10-23 20:40:00,
2013-10-23 16:45:00,75.4,50.1,29.81,NNW,335,0.9,3.5,41,0.00,SCT,,0.10,WeatherDisplay:10.37,2013-10-23 20:45:00,
2013-10-23 16:50:00,75.4,48.0,29.81,West,281,0.8,10.4,38,0.00,SCT,,0.10,WeatherDisplay:10.37,2013-10-23 20:50:00,
2013-10-23 16:55:00,75.1,49.1,29.81,North,10,0.7,12.0,40,0.00,SCT,,0.10,WeatherDisplay:10.37,2013-10-23 20:55:00,
2013-10-23 17:00:00,74.7,49.4,29.81,WNW,298,0.0,4.6,41,0.00,SCT,,0.10,WeatherDisplay:10.37,2013-10-23 21:00:00,
2013-10-23 17:05:00,74.7,48.8,29.81,WSW,244,1.6,5.0,40,0.00,SCT,,0.10,WeatherDisplay:10.37,2013-10-23 21:05:00,
2013-10-23 17:10:00,75.1,49.1,29.82,ENE,74,0.0,1.2,40,0.00,SCT,,0.10,WeatherDisplay:10.37,2013-10-23 21:10:00,
2013-10-23 17:15:00,74.7,48.8,29.82,North,355,0.1,2.3,40,0.00,SCT,,0.10,WeatherDisplay:10.37,2013-10-23 21:15:00,
2013-10-23 17:20:00,74.4,48.5,29.82,North,360,0.0,1.2,40,0.00,SCT,,0.10,WeatherDisplay:10.37,2013-10-23 21:20:00,
2013-10-23 17:25:00,74.2,47.6,29.82,South,173,1.3,11.5,39,0.00,SCT,,0.10,WeatherDisplay:10.37,2013-10-23 21:25:00,
2013-10-23 17:30:00,74.2,48.3,29.83,SSE,167,0.0,1.0,40,0.00,SCT,,0.10,WeatherDisplay:10.37,2013-10-23 21:30:00,
2013-10-23 17:35:00,73.9,48.7,29.83,NNW,338,0.0,1.2,41,0.00,SCT,,0.10,WeatherDisplay:10.37,2013-10-23 21:35:00,
2013-10-23 17:40:00,73.7,48.5,29.83,NNW,343,0.3,4.0,41,0.00,SCT,,0.10,WeatherDisplay:10.37,2013-10-23 21:40:00,
2013-10-23 17:45:00,73.7,49.2,29.83,SW,215,0.0,0.0,42,0.00,SCT,,0.10,WeatherDisplay:10.37,2013-10-23 21:45:00,
2013-10-23 17:50:00,73.7,49.8,29.83,SE,125,0.0,0.0,43,0.00,SCT,,0.10,WeatherDisplay:10.37,2013-10-23 21:50:00,
2013-10-23 17:55:00,73.7,49.2,29.83,West,272,2.5,4.0,42,0.00,SCT,,0.10,WeatherDisplay:10.37,2013-10-23 21:55:00,
2013-10-23 18:00:00,73.5,48.4,29.83,NW,316,1.3,2.0,41,0.00,SCT,,0.10,WeatherDisplay:10.37,2013-10-23 22:00:00,
2013-10-23 18:05:00,73.3,48.8,29.83,NNE,20,0.0,0.0,42,0.00,FEW,,0.10,WeatherDisplay:10.37,2013-10-23 22:05:00,
2013-10-23 18:10:00,73.3,50.1,29.83,NNE,20,0.0,0.0,44,0.00,FEW,,0.10,WeatherDisplay:10.37,2013-10-23 22:10:00,
2013-10-23 18:15:00,73.2,50.6,29.83,NNE,20,0.0,0.0,45,0.00,FEW,,0.10,WeatherDisplay:10.37,2013-10-23 22:15:00,
2013-10-23 18:20:00,72.8,49.6,29.84,North,360,0.6,3.5,44,0.00,FEW,,0.10,WeatherDisplay:10.37,2013-10-23 22:20:00,
2013-10-23 18:25:00,72.5,48.7,29.84,NNW,342,0.2,1.2,43,0.00,FEW,,0.10,WeatherDisplay:10.37,2013-10-23 22:25:00,
2013-10-23 18:30:00,72.3,49.2,29.84,NNW,342,0.0,0.0,44,0.00,FEW,,0.10,WeatherDisplay:10.37,2013-10-23 22:30:00,
2013-10-23 18:35:00,72.0,48.9,29.84,NNW,343,0.0,0.0,44,0.00,FEW,,0.10,WeatherDisplay:10.37,2013-10-23 22:35:00,
2013-10-23 18:40:00,71.6,48.5,29.84,NNW,341,0.0,1.2,44,0.00,FEW,,0.10,WeatherDisplay:10.37,2013-10-23 22:40:00,
2013-10-23 18:45:00,71.3,48.9,29.84,NNW,335,0.0,0.0,45,0.00,FEW,,0.10,WeatherDisplay:10.37,2013-10-23 22:45:00,
2013-10-23 18:50:00,71.1,48.7,29.85,NNW,335,0.1,1.2,45,0.00,FEW,,0.10,WeatherDisplay:10.37,2013-10-23 22:50:00,
2013-10-23 18:55:00,70.8,48.4,29.85,NNW,335,0.0,0.0,45,0.00,FEW,,0.10,WeatherDisplay:10.37,2013-10-23 22:55:00,
2013-10-23 19:00:00,70.6,49.4,29.86,NNW,335,0.0,1.0,47,0.00,FEW,,0.10,WeatherDisplay:10.37,2013-10-23 23:00:00,
2013-10-23 19:05:00,70.3,49.1,29.86,NNW,335,0.0,0.0,47,0.00,FEW,,0.10,WeatherDisplay:10.37,2013-10-23 23:05:00,
2013-10-23 19:10:00,69.9,48.7,29.86,NNW,335,0.0,0.0,47,0.00,FEW,,0.10,WeatherDisplay:10.37,2013-10-23 23:10:00,
2013-10-23 19:15:00,69.6,49.0,29.86,NNW,335,0.0,0.0,48,0.00,FEW,,0.10,WeatherDisplay:10.37,2013-10-23 23:15:00,
2013-10-23 19:20:00,69.3,49.3,29.87,NNW,335,0.0,0.0,49,0.00,FEW,,0.10,WeatherDisplay:10.37,2013-10-23 23:20:00,
2013-10-23 19:25:00,68.9,49.5,29.87,NNW,335,0.0,0.0,50,0.00,FEW,,0.10,WeatherDisplay:10.37,2013-10-23 23:25:00,
2013-10-23 19:30:00,68.6,49.7,29.87,NNW,335,0.0,0.0,51,0.00,FEW,,0.10,WeatherDisplay:10.37,2013-10-23 23:30:00,
2013-10-23 19:35:00,68.3,49.5,29.87,NNW,335,0.0,0.0,51,0.00,FEW,,0.10,WeatherDisplay:10.37,2013-10-23 23:35:00,
2013-10-23 19:40:00,67.9,49.6,29.88,NNW,335,0.0,0.0,52,0.00,FEW,,0.10,WeatherDisplay:10.37,2013-10-23 23:40:00,
2013-10-23 19:45:00,67.6,49.9,29.88,NNW,335,0.0,0.0,53,0.00,FEW,,0.10,WeatherDisplay:10.37,2013-10-23 23:45:00,
2013-10-23 19:50:00,67.1,49.4,29.88,NNW,335,0.0,0.0,53,0.00,FEW,,0.10,WeatherDisplay:10.37,2013-10-23 23:50:00,
2013-10-23 19:55:00,66.9,49.7,29.89,NNW,335,0.0,0.0,54,0.00,FEW,,0.10,WeatherDisplay:10.37,2013-10-23 23:55:00,
2013-10-23 20:00:00,66.6,49.9,29.89,NNW,335,0.0,0.0,55,0.00,FEW,,0.10,WeatherDisplay:10.37,2013-10-24 00:00:00,
2013-10-23 20:05:00,66.3,49.6,29.89,NNW,335,0.0,0.0,55,0.00,FEW,,0.10,WeatherDisplay:10.37,2013-10-24 00:05:00,
2013-10-23 20:10:00,66.0,49.8,29.89,NNW,335,0.0,0.0,56,0.00,FEW,,0.10,WeatherDisplay:10.37,2013-10-24 00:10:00,
2013-10-23 20:15:00,65.6,49.5,29.89,NNW,335,0.0,0.0,56,0.00,FEW,,0.10,WeatherDisplay:10.37,2013-10-24 00:15:00,
2013-10-23 20:20:00,65.3,49.7,29.89,NNW,335,0.0,0.0,57,0.00,FEW,,0.10,WeatherDisplay:10.37,2013-10-24 00:20:00,
2013-10-23 20:25:00,65.0,49.4,29.89,NNW,335,0.0,0.0,57,0.00,FEW,,0.10,WeatherDisplay:10.37,2013-10-24 00:25:00,
2013-10-23 20:30:00,64.8,49.7,29.89,NNW,335,0.0,0.0,58,0.00,FEW,,0.10,WeatherDisplay:10.37,2013-10-24 00:30:00,
2013-10-23 20:35:00,64.5,49.4,29.90,NNW,335,0.0,0.0,58,0.00,FEW,,0.10,WeatherDisplay:10.37,2013-10-24 00:35:00,
2013-10-23 20:40:00,64.2,49.6,29.90,NNW,335,0.0,0.0,59,0.00,FEW,,0.10,WeatherDisplay:10.37,2013-10-24 00:40:00,
2013-10-23 20:45:00,64.0,49.8,29.90,NNW,335,0.0,0.0,60,0.00,FEW,,0.10,WeatherDisplay:10.37,2013-10-24 00:45:00,
2013-10-23 20:50:00,63.7,49.5,29.90,NNW,335,0.0,0.0,60,0.00,FEW,,0.10,WeatherDisplay:10.37,2013-10-24 00:50:00,
2013-10-23 20:55:00,63.4,49.3,29.91,NNW,335,0.0,0.0,60,0.00,FEW,,0.10,WeatherDisplay:10.37,2013-10-24 00:55:00,
2013-10-23 21:00:00,63.2,49.1,29.91,NNW,335,0.0,0.0,60,0.00,FEW,,0.10,WeatherDisplay:10.37,2013-10-24 01:00:00,
2013-10-23 21:05:00,62.9,49.2,29.91,NNW,335,0.0,0.0,61,0.00,CLR,,0.10,WeatherDisplay:10.37,2013-10-24 01:05:00,
2013-10-23 21:10:00,62.7,49.1,29.91,NNW,335,0.0,0.0,61,0.00,CLR,,0.10,WeatherDisplay:10.37,2013-10-24 01:10:00,
2013-10-23 21:15:00,62.4,49.2,29.91,NNW,335,0.0,0.0,62,0.00,CLR,,0.10,WeatherDisplay:10.37,2013-10-24 01:15:00,
2013-10-23 21:20:00,62.3,49.1,29.91,NNW,335,0.0,0.0,62,0.00,CLR,,0.10,WeatherDisplay:10.37,2013-10-24 01:20:00,
2013-10-23 21:25:00,62.1,49.4,29.91,NNW,335,0.0,0.0,63,0.00,CLR,,0.10,WeatherDisplay:10.37,2013-10-24 01:25:00,
2013-10-23 21:30:00,61.8,49.1,29.92,NNW,335,0.0,0.0,63,0.00,CLR,,0.10,WeatherDisplay:10.37,2013-10-24 01:30:00,
2013-10-23 21:35:00,61.6,49.3,29.92,NNW,335,0.0,0.0,64,0.00,CLR,,0.10,WeatherDisplay:10.37,2013-10-24 01:35:00,
2013-10-23 21:40:00,61.5,49.2,29.92,NNW,335,0.0,0.0,64,0.00,CLR,,0.10,WeatherDisplay:10.37,2013-10-24 01:40:00,
2013-10-23 21:45:00,61.2,48.9,29.92,NNW,335,0.0,0.0,64,0.00,CLR,,0.10,WeatherDisplay:10.37,2013-10-24 01:45:00,
2013-10-23 21:50:00,61.0,48.7,29.92,NNW,335,0.0,0.0,64,0.00,CLR,,0.10,WeatherDisplay:10.37,2013-10-24 01:50:00,
2013-10-23 21:55:00,60.9,48.6,29.93,NNW,335,0.0,0.0,64,0.00,CLR,,0.10,WeatherDisplay:10.37,2013-10-24 01:55:00,
2013-10-23 22:00:00,60.7,48.9,29.93,NNW,335,0.0,0.0,65,0.00,CLR,,0.10,WeatherDisplay:10.37,2013-10-24 02:00:00,
2013-10-23 22:05:00,60.5,48.7,29.93,NNW,335,0.0,0.0,65,0.00,FEW,,0.10,WeatherDisplay:10.37,2013-10-24 02:05:00,
2013-10-23 22:10:00,60.4,48.6,29.93,NNW,335,0.0,0.0,65,0.00,FEW,,0.10,WeatherDisplay:10.37,2013-10-24 02:10:00,
2013-10-23 22:15:00,60.1,48.3,29.93,NNW,335,0.0,0.0,65,0.00,FEW,,0.10,WeatherDisplay:10.37,2013-10-24 02:15:00,
2013-10-23 22:20:00,59.9,48.5,29.94,NNW,335,0.0,0.0,66,0.00,FEW,,0.10,WeatherDisplay:10.37,2013-10-24 02:20:00,
2013-10-23 22:25:00,59.9,48.5,29.94,NNW,335,0.0,0.0,66,0.00,FEW,,0.10,WeatherDisplay:10.37,2013-10-24 02:25:00,
2013-10-23 22:30:00,59.8,48.4,29.94,NNW,335,0.0,0.0,66,0.00,FEW,,0.10,WeatherDisplay:10.37,2013-10-24 02:30:00,
2013-10-23 22:35:00,59.6,48.6,29.95,NNW,335,0.0,0.0,67,0.00,FEW,,0.10,WeatherDisplay:10.37,2013-10-24 02:35:00,
2013-10-23 22:40:00,59.5,48.5,29.95,NNW,335,0.0,0.0,67,0.00,FEW,,0.10,WeatherDisplay:10.37,2013-10-24 02:40:00,
2013-10-23 22:46:00,59.2,48.2,29.95,NNW,335,0.0,0.0,67,0.00,FEW,,0.10,WeatherDisplay:10.37,2013-10-24 02:46:00,
2013-10-23 22:51:00,59.0,48.1,29.96,NNW,335,0.0,0.0,67,0.00,FEW,,0.10,WeatherDisplay:10.37,2013-10-24 02:51:00,
2013-10-23 22:56:00,58.9,48.0,29.96,NNW,335,0.0,0.0,67,0.00,FEW,,0.10,WeatherDisplay:10.37,2013-10-24 02:56:00,
2013-10-23 23:01:00,58.7,48.2,29.96,NNW,335,0.0,0.0,68,0.00,FEW,,0.10,WeatherDisplay:10.37,2013-10-24 03:01:00,
2013-10-23 23:06:00,58.7,48.2,29.97,NNW,335,0.0,0.0,68,0.00,FEW,,0.10,WeatherDisplay:10.37,2013-10-24 03:06:00,
2013-10-23 23:11:00,58.6,48.1,29.97,NNW,335,0.0,0.0,68,0.00,FEW,,0.10,WeatherDisplay:10.37,2013-10-24 03:11:00,
2013-10-23 23:16:00,58.4,48.3,29.97,NNW,335,0.0,0.0,69,0.00,FEW,,0.10,WeatherDisplay:10.37,2013-10-24 03:16:00,
2013-10-23 23:21:00,58.3,48.2,29.97,NNW,335,0.0,0.0,69,0.00,FEW,,0.10,WeatherDisplay:10.37,2013-10-24 03:21:00,
2013-10-23 23:26:00,58.1,48.4,29.97,NNW,335,0.0,0.0,70,0.00,FEW,,0.10,WeatherDisplay:10.37,2013-10-24 03:26:00,
2013-10-23 23:31:00,58.1,48.4,29.97,NNW,335,0.0,0.0,70,0.00,FEW,,0.10,WeatherDisplay:10.37,2013-10-24 03:31:00,
2013-10-23 23:36:00,58.0,48.3,29.97,NNW,335,0.0,0.0,70,0.00,FEW,,0.10,WeatherDisplay:10.37,2013-10-24 03:36:00,
2013-10-23 23:41:00,57.8,48.1,29.97,NNW,335,0.0,0.0,70,0.00,FEW,,0.10,WeatherDisplay:10.37,2013-10-24 03:41:00,
2013-10-23 23:46:00,57.6,47.9,29.98,NNW,335,0.0,0.0,70,0.00,FEW,,0.10,WeatherDisplay:10.37,2013-10-24 03:46:00,
2013-10-23 23:51:00,57.5,48.2,29.98,NNW,335,0.0,0.0,71,0.00,FEW,,0.10,WeatherDisplay:10.37,2013-10-24 03:51:00,
2013-10-23 23:56:00,57.3,48.0,29.98,NNW,335,0.0,0.0,71,0.00,FEW,,0.10,WeatherDisplay:10.37,2013-10-24 03:56:00,